Location: Clayton (historical)
(34.0300°N, 118.0259°W)
Time: 07:43:22
(UTC+00:00)

Aureole 3 - Pass Details

Date: 29 October 2020
Orbit: 382 x 1231 km, 82.5° (Epoch: 29 November)

Event Time Altitude Azimuth Distance (km) Brightness Sun altitude
Rises 12:50:36 0° 354° (N) 2,899 6.9 -16.9°
Reaches altitude 10° 12:52:37 10° 356° (N) 2,101 6.2 -16.5°
Maximum altitude 12:57:20 82° 84° (E) 804 4.1 -15.5°
Drops below altitude 10° 13:03:23 10° 172° (S) 2,661 7.0 -14.3°
Sets 13:06:10 0° 173° (S) 3,733 7.7 -13.7°
